Location: Carr Mill
(33.2054°N, 85.9439°W)
Time: 20:05:46
(UTC+00:00)

STARLINK-2646 - Pass Details

Date: 24 June 2021
Orbit: 546 x 548 km, 53.1° (Epoch: 03 August)

Event Time Altitude Azimuth Distance (km) Brightness Sun altitude
Exits shadow 06:52:02 - 82° (E) 2,070 6.8 -31.3°
Enters shadow 07:52:10 -64° 226° (SW) 12,043 10.4 -25.9°
Maximum altitude 08:28:03 60° 316° (NW) 626 3.8 -21.5°
